This is the latest recevied weather packets stored in our database for station/object K6CQU-13. If no packets are shown the sender has not sent any weather packets the latest 10 day(s).
| Time | Temp. | Humidity | Pressure | Rain* | Wind** | Luminosity | Snow |
|---|---|---|---|---|---|---|---|
| 1777645518 | 14.44° C | 86% | 1013.6 hPa | 0 mm | - | 143 W/m² | - |
| 1777645218 | 13.89° C | 87% | 1013.5 hPa | 0 mm | - | 140 W/m² | - |
| 1777644918 | 13.33° C | 89% | 1013.5 hPa | 0 mm | - | 128 W/m² | - |
| 1777644618 | 13.33° C | 90% | 1013.4 hPa | 0 mm | - | 115 W/m² | - |
| 1777644318 | 12.78° C | 91% | 1013.4 hPa | 0 mm | - | 103 W/m² | - |
| 1777644018 | 12.22° C | 91% | 1013.4 hPa | 0 mm | - | 91 W/m² | - |
| 1777643718 | 12.22° C | 90% | 1013.3 hPa | 0 mm | - | 78 W/m² | - |
| 1777643418 | 12.22° C | 90% | 1013.2 hPa | 0 mm | - | 53 W/m² | - |
| 1777643118 | 12.22° C | 89% | 1013.2 hPa | 0 mm | - | 29 W/m² | - |
| 1777642818 | 12.22° C | 90% | 1013 hPa | 0 mm | - | 22 W/m² | - |
| 1777642518 | 11.67° C | 89% | 1013 hPa | 0 mm | - | 18 W/m² | - |
| 1777642218 | 11.67° C | 89% | 1013 hPa | 0 mm | - | 15 W/m² | - |
| 1777641918 | 11.67° C | 89% | 1012.9 hPa | 0 mm | - | 12 W/m² | - |
| 1777641618 | 11.67° C | 88% | 1012.8 hPa | 0 mm | - | 9 W/m² | - |
| 1777641318 | 11.67° C | 88% | 1012.8 hPa | 0 mm | - | 6 W/m² | - |
| 1777641017 | 12.22° C | 88% | 1012.7 hPa | 0 mm | - | 1 W/m² | - |
| 1777640717 | 12.22° C | 88% | 1012.7 hPa | 0 mm | - | 0 W/m² | - |
| 1777640418 | 12.22° C | 87% | 1012.7 hPa | 0 mm | - | 0 W/m² | - |
| 1777640117 | 12.22° C | 87% | 1012.7 hPa | 0 mm | - | 0 W/m² | - |
| 1777639818 | 12.22° C | 87% | 1012.7 hPa | 0 mm | - | 0 W/m² | - |
| 1777639518 | 12.22° C | 86% | 1012.7 hPa | 0 mm | - | 0 W/m² | - |
| 1777639218 | 12.22° C | 86% | 1012.6 hPa | 0 mm | - | 0 W/m² | - |
| 1777638918 | 12.22° C | 86% | 1012.6 hPa | 0 mm | - | 0 W/m² | - |
| 1777638618 | 12.22° C | 86% | 1012.6 hPa | 0 mm | - | 0 W/m² | - |
| 1777638318 | 12.22° C | 85% | 1012.5 hPa | 0 mm | - | 0 W/m² | - |
* Rain latest hour (hover to see other rain measurements)
** Current wind speed in m/s (hover to see current wind gust speed)